Dades meteomassalio
Diari Summary for Juny 4, 2017 Units:  Metric    English   Both
« Previous Day
Next Day »
Diari Semanal Mensual Anual Personalitzat
  Maxima: Minima: Mijana:
Temperatura: -17.8 °C -10.2 °C -9.2 °C
Rosada: -17.8 °C -11.2 °C -10.2 °C
Humitat: Humidity % 78 % 88 %
Velocitat del vent: 0 km/h 0 km/h 7.7 km/h
Racha vent: 0 km/h - -
Vent:- - SW
Pressio: 0 hPa 34361.1 hPa -
Pluja: 850.9 mm    
Historical Graphs
 
 
Tabular Data for Juny 4, 2017
Time Temperature Dew Point Pressure Wind Wind Speed Wind Gust Humidity Rainfall Rate (Hourly) solar Conditions
-17.8 °C -17.8 °C 0 hPa Calm     Humidity % 0 mm SolarRadiationWatts/m^2 W/m2 Conditions
00:02 -7.7 °C -9.7 °C 34496.6 hPa WSW 11.9 km/h 11.9 km/h 80 % 0 mm 0.0 W/m2 RA
00:07 -7.7 °C -9.7 °C 34496.6 hPa Calm     80 % 0 mm 0.0 W/m2 CLR
00:12 -7.7 °C -9.8 °C 34496.6 hPa WSW 11.9 km/h 11.9 km/h 79 % 0 mm 0.0 W/m2 CLR
00:17 -7.7 °C -9.7 °C 34496.6 hPa WSW 7.7 km/h 7.7 km/h 79 % 0 mm 0.0 W/m2 CLR
00:22 -7.7 °C -9.8 °C 34486.4 hPa Calm     79 % 0 mm 0.0 W/m2 CLR
00:27 -7.7 °C -9.8 °C 34486.4 hPa West 17.9 km/h 17.9 km/h 78 % 0 mm 0.0 W/m2 CLR
00:32 -7.7 °C -9.8 °C 34486.4 hPa West 15 km/h 15 km/h 78 % 0 mm 0.0 W/m2 CLR
00:37 -7.7 °C -9.8 °C 34486.4 hPa West 15 km/h 15 km/h 78 % 0 mm 0.0 W/m2 CLR
00:42 -7.7 °C -9.9 °C 34486.4 hPa Calm     78 % 0 mm 0.0 W/m2 CLR
00:47 -7.8 °C -9.9 °C 34486.4 hPa West 11.9 km/h 11.9 km/h 79 % 0 mm 0.0 W/m2 CLR
00:52 -7.8 °C -9.9 °C 34486.4 hPa Calm     79 % 0 mm 0.0 W/m2 CLR
00:57 -7.9 °C -9.8 °C 34486.4 hPa Calm     80 % 0 mm 0.0 W/m2 CLR
01:02 -8 °C -9.9 °C 34486.4 hPa Calm     80 % 0 mm 0.0 W/m2 CLR
01:07 -8.1 °C -9.9 °C 34486.4 hPa Calm     81 % 0 mm 0.0 W/m2 CLR
01:12 -8.2 °C -9.9 °C 34486.4 hPa Calm     82 % 0 mm 0.0 W/m2 CLR
01:17 -8.2 °C -9.9 °C 34486.4 hPa Calm     82 % 0 mm 0.0 W/m2 CLR
01:22 -8.3 °C -10 °C 34486.4 hPa Calm     82 % 0 mm 0.0 W/m2 CLR
01:23 -8.3 °C -10 °C 34486.4 hPa Calm     82 % 0 mm 0.0 W/m2 CLR
01:28 -8.2 °C -9.9 °C 34486.4 hPa Calm     82 % 0 mm 0.0 W/m2 CLR
01:33 -8.2 °C -9.9 °C 34486.4 hPa Calm     82 % 0 mm 0.0 W/m2 CLR
01:38 -8.2 °C -9.9 °C 34476.3 hPa West 11.9 km/h 11.9 km/h 82 % 0 mm 0.0 W/m2 CLR
01:43 -8.2 °C -9.9 °C 34486.4 hPa Calm     82 % 0 mm 0.0 W/m2 CLR
01:48 -8.2 °C -10.1 °C 34486.4 hPa WNW 11.9 km/h 11.9 km/h 81 % 0 mm 0.0 W/m2 CLR
01:53 -8.2 °C -10.1 °C 34486.4 hPa West 15 km/h 15 km/h 81 % 0 mm 0.0 W/m2 CLR
01:58 -8.2 °C -10.1 °C 34486.4 hPa Calm     81 % 0 mm 0.0 W/m2 CLR
02:03 -8.2 °C -10.1 °C 34486.4 hPa Calm     81 % 0 mm 0.0 W/m2 CLR
02:08 -8.2 °C -10.1 °C 34486.4 hPa Calm     81 % 0 mm 0.0 W/m2 CLR
02:13 -8.3 °C -10.1 °C 34486.4 hPa Calm     81 % 0 mm 0.0 W/m2 CLR
02:18 -8.3 °C -10.2 °C 34486.4 hPa Calm     81 % 0 mm 0.0 W/m2 CLR
02:23 -8.4 °C -10.2 °C 34486.4 hPa Calm     81 % 0 mm 0.0 W/m2 CLR
02:28 -8.4 °C -10.2 °C 34486.4 hPa Calm     81 % 0 mm 0.0 W/m2 CLR
02:33 -8.5 °C -10.2 °C 34486.4 hPa Calm     82 % 0 mm 0.0 W/m2 CLR
02:38 -8.6 °C -10.3 °C 34486.4 hPa Calm     82 % 0 mm 0.0 W/m2 CLR
02:43 -8.6 °C -10.3 °C 34486.4 hPa WNW 11.9 km/h 11.9 km/h 82 % 0 mm 0.0 W/m2 CLR
02:48 -8.6 °C -10.3 °C 34486.4 hPa West 11.9 km/h 11.9 km/h 82 % 0 mm 0.0 W/m2 CLR
02:53 -8.7 °C -10.4 °C 34486.4 hPa NW 11.9 km/h 11.9 km/h 82 % 0 mm 0.0 W/m2 CLR
02:58 -8.7 °C -10.4 °C 34496.6 hPa West 11.9 km/h 11.9 km/h 82 % 0 mm 0.0 W/m2 CLR
03:03 -8.8 °C -10.4 °C 34496.6 hPa Calm     82 % 0 mm 0.0 W/m2 CLR
03:08 -8.8 °C -10.5 °C 34496.6 hPa Calm     82 % 0 mm 0.0 W/m2 CLR
03:13 -8.9 °C -10.6 °C 34496.6 hPa Calm     82 % 0 mm 0.0 W/m2 CLR
03:19 -8.9 °C -10.5 °C 34486.4 hPa Calm     83 % 0 mm 0.0 W/m2 CLR
03:24 -9 °C -10.6 °C 34496.6 hPa Calm     83 % 0 mm 0.0 W/m2 CLR
03:29 -9 °C -10.6 °C 34496.6 hPa Calm     83 % 0 mm 0.0 W/m2 CLR
03:34 -9.1 °C -10.7 °C 34496.6 hPa Calm     83 % 0 mm 0.0 W/m2 CLR
03:39 -9.1 °C -10.6 °C 34496.6 hPa Calm     84 % 0 mm 0.0 W/m2 CLR
03:44 -9.2 °C -10.7 °C 34496.6 hPa Calm     84 % 0 mm 0.0 W/m2 CLR
03:49 -9.2 °C -10.6 °C 34496.6 hPa Calm     85 % 0 mm 0.0 W/m2 CLR
03:54 -9.3 °C -10.7 °C 34496.6 hPa Calm     85 % 0 mm 0.0 W/m2 CLR
03:56 -9.3 °C -10.7 °C 34496.6 hPa Calm     85 % 0 mm 0.0 W/m2 CLR
04:01 -9.3 °C -10.7 °C 34496.6 hPa Calm     86 % 0 mm 0.0 W/m2 CLR
04:06 -9.4 °C -10.7 °C 34496.6 hPa Calm     86 % 0 mm 0.0 W/m2 CLR
04:11 -9.5 °C -10.8 °C 34486.4 hPa Calm     86 % 0 mm 0.0 W/m2 CLR
04:16 -9.5 °C -10.7 °C 34486.4 hPa Calm     87 % 0 mm 0.0 W/m2 CLR
04:21 -9.6 °C -10.7 °C 34486.4 hPa Calm     87 % 0 mm 0.0 W/m2 CLR
04:26 -9.6 °C -10.8 °C 34496.6 hPa Calm     87 % 0 mm 0.0 W/m2 CLR
04:31 -9.6 °C -10.7 °C 34496.6 hPa Calm     88 % 0 mm 0.0 W/m2 CLR
04:36 -9.6 °C -10.7 °C 34496.6 hPa Calm     88 % 0 mm 0.0 W/m2 CLR
04:41 -9.6 °C -10.7 °C 34486.4 hPa Calm     88 % 0 mm 0.0 W/m2 CLR
04:46 -9.7 °C -10.8 °C 34486.4 hPa Calm     88 % 0 mm 0.0 W/m2 CLR
04:51 -9.7 °C -10.8 °C 34486.4 hPa Calm     88 % 0 mm 0.0 W/m2 CLR
04:56 -9.8 °C -10.8 °C 34496.6 hPa Calm     88 % 0 mm 0.0 W/m2 CLR
05:01 -9.8 °C -10.7 °C 34496.6 hPa Calm     89 % 0 mm 0.0 W/m2 CLR
05:06 -9.8 °C -10.8 °C 34496.6 hPa Calm     89 % 0 mm 0.0 W/m2 CLR
05:11 -9.8 °C -10.8 °C 34496.6 hPa Calm     89 % 0 mm 0.0 W/m2 CLR
05:16 -9.8 °C -10.8 °C 34486.4 hPa Calm     89 % 0 mm 0.0 W/m2 CLR
05:21 -9.8 °C -10.8 °C 34486.4 hPa Calm     89 % 0 mm 0.0 W/m2 CLR
05:26 -9.8 °C -10.8 °C 34486.4 hPa Calm     89 % 0 mm 0.0 W/m2 CLR
05:31 -9.8 °C -10.7 °C 34476.3 hPa Calm     90 % 0 mm 0.0 W/m2 CLR
05:36 -9.8 °C -10.7 °C 34476.3 hPa Calm     90 % 0 mm 0.0 W/m2 CLR
05:41 -9.9 °C -10.8 °C 34476.3 hPa Calm     90 % 0 mm 0.0 W/m2 CLR
05:46 -9.9 °C -10.8 °C 34462.7 hPa Calm     90 % 0 mm 0.0 W/m2 CLR
05:51 -9.9 °C -10.8 °C 34476.3 hPa Calm     90 % 0 mm 0.0 W/m2 CLR
05:56 -9.9 °C -10.9 °C 34476.3 hPa Calm     90 % 0 mm 0.0 W/m2 CLR
06:01 -10.1 °C -10.9 °C 34476.3 hPa Calm     90 % 0 mm 0.0 W/m2 CLR
06:06 -10.1 °C -10.9 °C 34462.7 hPa Calm     90 % 0 mm 0.0 W/m2 CLR
06:11 -10.1 °C -10.9 °C 34462.7 hPa Calm     91 % 0 mm 0.0 W/m2 CLR
06:16 -10.1 °C -10.9 °C 34462.7 hPa Calm     91 % 0 mm 0.0 W/m2 CLR
06:21 -10.1 °C -10.9 °C 34462.7 hPa Calm     91 % 0 mm 0.0 W/m2 OVC
06:26 -10 °C -10.8 °C 34462.7 hPa Calm     91 % 0 mm 0.0 W/m2 OVC
06:31 -10.1 °C -10.8 °C 34462.7 hPa Calm     91 % 0 mm 0.0 W/m2 OVC
06:36 -10.1 °C -10.8 °C 34476.3 hPa Calm     91 % 0 mm 5.0 W/m2 OVC
06:41 -10.1 °C -10.8 °C 34476.3 hPa Calm     91 % 0 mm 9.0 W/m2 BKN
06:46 -10.1 °C -10.8 °C 34476.3 hPa Calm     91 % 0 mm 11.0 W/m2 BKN
06:51 -10.1 °C -10.9 °C 34476.3 hPa Calm     90 % 0 mm 12.0 W/m2 BKN
06:56 -10 °C -10.8 °C 34486.4 hPa Calm     91 % 0 mm 16.0 W/m2 BKN
07:01 -9.9 °C -10.8 °C 34486.4 hPa Calm     91 % 0 mm 21.0 W/m2 BKN
07:06 -9.9 °C -10.8 °C 34486.4 hPa Calm     90 % 0 mm 23.0 W/m2 BKN
07:11 -9.9 °C -10.8 °C 34486.4 hPa Calm     90 % 0 mm 26.0 W/m2 BKN
07:16 -9.9 °C -10.8 °C 34486.4 hPa Calm     90 % 0 mm 28.0 W/m2 BKN
07:21 -9.8 °C -10.7 °C 34486.4 hPa Calm     90 % 0 mm 35.0 W/m2 BKN
07:26 -9.8 °C -10.8 °C 34486.4 hPa NW 10.3 km/h 10.3 km/h 89 % 0 mm 42.0 W/m2 BKN
07:31 -9.8 °C -10.9 °C 34486.4 hPa WNW 9 km/h   88 % 0 mm 44.0 W/m2 BKN
07:36 -9.8 °C -10.9 °C 34486.4 hPa NW 9 km/h 9 km/h 87 % 0 mm 44.0 W/m2 BKN
07:41 -9.8 °C -10.9 °C 34496.6 hPa Calm     87 % 0 mm 40.0 W/m2 BKN
07:46 -9.8 °C -11.1 °C 34496.6 hPa WNW 6 km/h   86 % 0 mm 47.0 W/m2 BKN
07:51 -9.7 °C -11 °C 34486.4 hPa Calm     86 % 0 mm 63.0 W/m2 SCT
07:56 -9.7 °C -11 °C 34496.6 hPa Calm     86 % 0 mm 76.0 W/m2 SCT
08:01 -9.7 °C -10.9 °C 34496.6 hPa Calm     86 % 0 mm 42.0 W/m2 SCT
08:06 -9.7 °C -11.1 °C 34496.6 hPa WNW 6 km/h 6 km/h 85 % 0 mm 21.0 W/m2 SCT
08:11 -9.7 °C -11.1 °C 34496.6 hPa NW 9 km/h 9 km/h 85 % 0 mm 14.0 W/m2 BKN
08:16 -9.7 °C -11.1 °C 34510.1 hPa Calm     85 % 0 mm 14.0 W/m2 BKN
08:21 -9.7 °C -11 °C 34496.6 hPa Calm     86 % 0 mm 26.0 W/m2 BKN
08:26 -9.8 °C -11.1 °C 34510.1 hPa ENE 5.1 km/h 5.1 km/h 86 % 0 mm 32.0 W/m2 BKN
08:31 -9.8 °C -10.9 °C 34510.1 hPa Calm     87 % 7.62 mm 33.0 W/m2 RA
08:36 -9.8 °C -11 °C 34510.1 hPa Calm     87 % 7.62 mm 26.0 W/m2 BKN
08:41 -9.8 °C -10.9 °C 34520.3 hPa Calm     88 % 7.62 mm 25.0 W/m2 BKN
08:46 -9.9 °C -10.9 °C 34520.3 hPa Calm     88 % 7.62 mm 18.0 W/m2 BKN
08:51 -9.9 °C -11 °C 34520.3 hPa West 2.6 km/h   88 % 12.7 mm 16.0 W/m2 RA
08:56 -9.9 °C -10.9 °C 34520.3 hPa Calm     89 % 25.4 mm 18.0 W/m2 RA
09:01 -10 °C -11 °C 34520.3 hPa Calm     89 % 25.4 mm 23.0 W/m2 BKN
09:06 -10.1 °C -11 °C 34533.8 hPa Calm     89 % 25.4 mm 21.0 W/m2 BKN
09:11 -10.1 °C -11.1 °C 34533.8 hPa Calm     89 % 25.4 mm 19.0 W/m2 BKN
09:16 -10.1 °C -10.9 °C 34533.8 hPa Calm     90 % 25.4 mm 21.0 W/m2 BKN
09:21 -10.1 °C -11 °C 34533.8 hPa Calm     90 % 25.4 mm 21.0 W/m2 BKN
09:41 -10.2 °C -11.2 °C 34533.8 hPa ENE 9 km/h   89 % 25.4 mm 42.0 W/m2 SCT
09:46 -10.2 °C -11.2 °C 34533.8 hPa Calm     89 % 25.4 mm 30.0 W/m2 BKN
09:51 -10.2 °C -11.2 °C 34520.3 hPa Calm     89 % 20.32 mm 39.0 W/m2 BKN
09:56 -10.2 °C -11.1 °C 34520.3 hPa Calm     90 % 7.62 mm 74.0 W/m2 BKN
10:01 -10.1 °C -11 °C 34510.1 hPa Calm     90 % 7.62 mm 114.0 W/m2 FEW
10:06 -10.1 °C -11 °C 34510.1 hPa Calm     90 % 7.62 mm 135.0 W/m2 CLR
10:11 -10.1 °C -10.9 °C 34496.6 hPa Calm     90 % 7.62 mm 156.0 W/m2 CLR
10:12 -10.1 °C -10.9 °C 34496.6 hPa Calm     90 % 7.62 mm 169.0 W/m2 CLR
10:17 -10 °C -10.9 °C 34496.6 hPa Calm     90 % 7.62 mm 295.0 W/m2 CLR
10:22 -9.9 °C -10.8 °C 34496.6 hPa Calm     90 % 7.62 mm 206.0 W/m2 CLR
10:27 -9.8 °C -10.7 °C 34486.4 hPa Calm     90 % 12.7 mm 156.0 W/m2 RA
10:32 -9.8 °C -10.8 °C 34486.4 hPa Calm     89 % 12.7 mm 246.0 W/m2 CLR
10:33 -9.8 °C -10.8 °C 34486.4 hPa Calm     89 % 12.7 mm 320.0 W/m2 CLR
10:38 -9.8 °C -10.7 °C 34486.4 hPa Calm     89 % 7.62 mm 223.0 W/m2 CLR
10:43 -9.8 °C -10.7 °C 34486.4 hPa Calm     89 % 7.62 mm 248.0 W/m2 CLR
10:48 -9.7 °C -10.7 °C 34476.3 hPa Calm     89 % 7.62 mm 229.0 W/m2 CLR
10:53 -9.7 °C -10.8 °C 34486.4 hPa South 3.1 km/h 3.1 km/h 88 % 7.62 mm 207.0 W/m2 CLR
10:58 -9.7 °C -10.8 °C 34496.6 hPa Calm     88 % 7.62 mm 214.0 W/m2 CLR
11:03 -9.6 °C -10.6 °C 34496.6 hPa South 17.9 km/h 17.9 km/h 89 % 7.62 mm 132.0 W/m2 CLR
11:08 -9.6 °C -10.6 °C 34496.6 hPa South 18.2 km/h 18.2 km/h 89 % 7.62 mm 107.0 W/m2 CLR
11:13 -9.6 °C -10.6 °C 34496.6 hPa South 20.9 km/h 20.9 km/h 89 % 7.62 mm 88.0 W/m2 CLR
11:18 -9.6 °C -10.5 °C 34496.6 hPa South 23.8 km/h 23.8 km/h 89 % 7.62 mm 77.0 W/m2 CLR
11:23 -9.6 °C -10.5 °C 34496.6 hPa SSW 15 km/h 15 km/h 89 % 7.62 mm 63.0 W/m2 FEW
11:28 -9.6 °C -10.5 °C 34510.1 hPa SSW 3.1 km/h 3.1 km/h 89 % 0 mm 42.0 W/m2 SCT
11:33 -9.6 °C -10.5 °C 34496.6 hPa Calm     89 % 0 mm 54.0 W/m2 SCT
11:38 -9.5 °C -10.5 °C 34496.6 hPa SW 9 km/h 9 km/h 89 % 0 mm 62.0 W/m2 SCT
11:43 -9.5 °C -10.5 °C 34510.1 hPa Calm     89 % 0 mm 40.0 W/m2 SCT
11:48 -9.5 °C -10.4 °C 34496.6 hPa Calm     89 % 0 mm 56.0 W/m2 SCT
11:53 -9.4 °C -10.4 °C 34496.6 hPa WSW 3.1 km/h 3.1 km/h 89 % 0 mm 128.0 W/m2 SCT
11:58 -9.4 °C -10.4 °C 34486.4 hPa SW 9 km/h 9 km/h 89 % 0 mm 146.0 W/m2 CLR
12:03 -9.3 °C -10.3 °C 34476.3 hPa Calm     89 % 0 mm 186.0 W/m2 CLR
12:08 -9.3 °C -10.3 °C 34476.3 hPa Calm     89 % 0 mm 174.0 W/m2 CLR
12:18 -9.2 °C -10.2 °C 34462.7 hPa East 9 km/h 9 km/h 89 % 33.02 mm 125.0 W/m2 RA
12:23 -9.3 °C -10.2 °C 34452.6 hPa ESE 17.9 km/h 17.9 km/h 90 % 50.8 mm 114.0 W/m2 RA
12:28 -9.5 °C -10.4 °C 34442.4 hPa East 9 km/h   90 % 76.2 mm 132.0 W/m2 RA
12:33 -9.5 °C -10.3 °C 34452.6 hPa Calm     91 % 83.82 mm 155.0 W/m2 RA
12:38 -9.4 °C -10.2 °C 34462.7 hPa Calm     91 % 83.82 mm 199.0 W/m2 CLR
12:43 -9.4 °C -10.2 °C 34462.7 hPa Calm     91 % 83.82 mm 223.0 W/m2 CLR
12:48 -9.4 °C -10.2 °C 34462.7 hPa Calm     91 % 83.82 mm 320.0 W/m2 CLR
12:53 -9.3 °C -10.2 °C 34462.7 hPa Calm     91 % 83.82 mm 364.0 W/m2 CLR
12:55 -9.3 °C -10.1 °C 34462.7 hPa Calm     91 % 83.82 mm 387.0 W/m2 CLR
13:00 -9.3 °C -10.1 °C 34462.7 hPa Calm     91 % 83.82 mm 176.0 W/m2 CLR
13:05 -9.3 °C -10.1 °C 34462.7 hPa Calm     91 % 83.82 mm 148.0 W/m2 CLR
13:10 -9.2 °C -10.1 °C 34462.7 hPa Calm     91 % 83.82 mm 132.0 W/m2 CLR
13:15 -9.2 °C -10 °C 34462.7 hPa Calm     91 % 71.12 mm 213.0 W/m2 CLR
13:20 -9.1 °C -9.8 °C 34452.6 hPa Calm     91 % 38.1 mm 434.0 W/m2 CLR
13:25 -9 °C -9.8 °C 34452.6 hPa Calm     91 % 12.7 mm 271.0 W/m2 CLR
13:30 -8.9 °C -9.8 °C 34452.6 hPa Calm     90 % 7.62 mm 309.0 W/m2 CLR
13:35 -8.9 °C -9.8 °C 34452.6 hPa Calm     90 % 0 mm 434.0 W/m2 CLR
13:40 -8.7 °C -9.7 °C 34452.6 hPa Calm     90 % 0 mm 304.0 W/m2 CLR
13:45 -8.7 °C -9.7 °C 34452.6 hPa North 10.3 km/h 10.3 km/h 89 % 0 mm 223.0 W/m2 CLR
13:50 -8.7 °C -9.8 °C 34452.6 hPa NNE 6 km/h   88 % 0 mm 127.0 W/m2 CLR
13:55 -8.7 °C -9.8 °C 34452.6 hPa Calm     88 % 0 mm 98.0 W/m2 CLR
14:00 -8.7 °C -9.7 °C 34442.4 hPa NE 15 km/h 15 km/h 89 % 0 mm 100.0 W/m2 CLR
14:05 -8.7 °C -9.8 °C 34452.6 hPa NNE 3.1 km/h   88 % 0 mm 100.0 W/m2 CLR
14:10 -8.7 °C -9.8 °C 34442.4 hPa NE 9 km/h 9 km/h 88 % 0 mm 134.0 W/m2 CLR
14:15 -8.7 °C -9.7 °C 34442.4 hPa Calm     89 % 0 mm 257.0 W/m2 CLR
14:20 -8.7 °C -9.7 °C 34428.8 hPa ENE 17.9 km/h 17.9 km/h 89 % 0 mm 466.0 W/m2 CLR
14:25 -8.6 °C -9.6 °C 34428.8 hPa NE 15 km/h 15 km/h 89 % 0 mm 422.0 W/m2 CLR
14:30 -8.5 °C -9.6 °C 34428.8 hPa ENE 11.9 km/h 11.9 km/h 88 % 0 mm 396.0 W/m2 CLR
14:35 -8.5 °C -9.7 °C 34428.8 hPa ENE 9 km/h   87 % 0 mm 559.0 W/m2 CLR
14:40 -8.4 °C -9.7 °C 34428.8 hPa NE 9 km/h 9 km/h 87 % 0 mm 522.0 W/m2 CLR
14:45 -8.3 °C -9.6 °C 34418.7 hPa East 11.9 km/h 11.9 km/h 87 % 0 mm 519.0 W/m2 CLR
14:50 -8.4 °C -9.6 °C 34418.7 hPa NE 18.2 km/h 18.2 km/h 87 % 0 mm 619.0 W/m2 CLR
14:55 -8.3 °C -9.4 °C 34418.7 hPa NNE 12.9 km/h 12.9 km/h 88 % 0 mm 506.0 W/m2 CLR
15:00 -8.2 °C -9.3 °C 34418.7 hPa Calm     88 % 0 mm 253.0 W/m2 CLR
15:05 -8.2 °C -9.3 °C 34405.1 hPa Calm     88 % 0 mm 388.0 W/m2 CLR
15:10 -8.2 °C -9.4 °C 34405.1 hPa ENE 9 km/h 9 km/h 87 % 0 mm 350.0 W/m2 CLR
15:15 -8.1 °C -9.3 °C 34395 hPa Calm     87 % 0 mm 366.0 W/m2 CLR
15:20 -8.1 °C -9.3 °C 34405.1 hPa NE 12.9 km/h 12.9 km/h 87 % 0 mm 306.0 W/m2 CLR
15:25 -8 °C -9.1 °C 34405.1 hPa NE 15 km/h 15 km/h 88 % 0 mm 227.0 W/m2 CLR
15:30 -8 °C -9.2 °C 34405.1 hPa ENE 9 km/h 9 km/h 87 % 0 mm 195.0 W/m2 CLR
15:35 -8 °C -9.2 °C 34405.1 hPa NE 11.9 km/h 11.9 km/h 87 % 0 mm 172.0 W/m2 CLR
15:40 -8 °C -9.2 °C 34405.1 hPa Calm     87 % 0 mm 193.0 W/m2 CLR
15:45 -8 °C -9.1 °C 34395 hPa Calm     88 % 12.7 mm 258.0 W/m2 RA
15:50 -8 °C -9.1 °C 34395 hPa ENE 7.7 km/h 7.7 km/h 88 % 12.7 mm 413.0 W/m2 CLR
15:55 -8 °C -9.1 °C 34395 hPa ENE 11.9 km/h 11.9 km/h 88 % 12.7 mm 315.0 W/m2 CLR
16:00 -8 °C -9 °C 34395 hPa Calm     89 % 12.7 mm 206.0 W/m2 CLR
16:05 -8 °C -9.1 °C 34405.1 hPa Calm     88 % 12.7 mm 98.0 W/m2 CLR
16:10 -8 °C -9.1 °C 34405.1 hPa Calm     89 % 12.7 mm 146.0 W/m2 CLR
16:15 -8.1 °C -9.1 °C 34405.1 hPa Calm     89 % 12.7 mm 153.0 W/m2 CLR
16:20 -8 °C -9.1 °C 34395 hPa Calm     89 % 12.7 mm 220.0 W/m2 CLR
16:25 -8 °C -9.1 °C 34405.1 hPa Calm     89 % 12.7 mm 141.0 W/m2 CLR
16:30 -8.1 °C -9.1 °C 34395 hPa Calm     89 % 12.7 mm 244.0 W/m2 CLR
16:35 -8 °C -9.1 °C 34395 hPa Calm     89 % 12.7 mm 192.0 W/m2 CLR
16:40 -7.9 °C -8.9 °C 34384.8 hPa Calm     89 % 12.7 mm 199.0 W/m2 CLR
16:45 -7.9 °C -8.9 °C 34384.8 hPa ENE 9 km/h 9 km/h 89 % 0 mm 223.0 W/m2 CLR
16:50 -7.9 °C -8.9 °C 34384.8 hPa NE 9 km/h 9 km/h 89 % 0 mm 176.0 W/m2 CLR
16:56 -7.9 °C -9 °C 34384.8 hPa Calm     88 % 0 mm 174.0 W/m2 CLR
17:01 -7.9 °C -8.9 °C 34384.8 hPa Calm     89 % 0 mm 134.0 W/m2 CLR
17:06 -7.9 °C -9 °C 34384.8 hPa NE 15 km/h 15 km/h 88 % 0 mm 128.0 W/m2 CLR
17:11 -7.9 °C -9.1 °C 34371.3 hPa North 23.8 km/h 23.8 km/h 88 % 0 mm 91.0 W/m2 CLR
17:16 -8.1 °C -9.1 °C 34371.3 hPa North 23.8 km/h 23.8 km/h 89 % 0 mm 83.0 W/m2 CLR
17:21 -8.1 °C -9.1 °C 34371.3 hPa North 18.2 km/h 18.2 km/h 89 % 0 mm 93.0 W/m2 CLR
17:26 -8.2 °C -9.2 °C 34371.3 hPa North 9 km/h   89 % 0 mm 63.0 W/m2 FEW
17:31 -8.2 °C -9.1 °C 34371.3 hPa North 15.6 km/h 15.6 km/h 90 % 0 mm 79.0 W/m2 FEW
17:36 -8.2 °C -9.1 °C 34371.3 hPa North 17.9 km/h 17.9 km/h 90 % 0 mm 84.0 W/m2 FEW
17:41 -8.2 °C -9.1 °C 34371.3 hPa NNW 15 km/h 15 km/h 90 % 0 mm 65.0 W/m2 FEW
17:46 -8.3 °C -9.2 °C 34371.3 hPa North 17.9 km/h 17.9 km/h 90 % 0 mm 69.0 W/m2 FEW
17:51 -8.3 °C -9.2 °C 34384.8 hPa North 15 km/h 15 km/h 90 % 0 mm 54.0 W/m2 SCT
17:56 -8.3 °C -9.2 °C 34371.3 hPa NNW 10.3 km/h 10.3 km/h 90 % 0 mm 51.0 W/m2 SCT
18:01 -8.3 °C -9.2 °C 34371.3 hPa NNW 15 km/h 15 km/h 90 % 0 mm 37.0 W/m2 SCT
18:06 -8.3 °C -9.3 °C 34371.3 hPa Calm     90 % 0 mm 53.0 W/m2 BKN
18:11 -8.3 °C -9.3 °C 34361.1 hPa Calm     90 % 0 mm 93.0 W/m2 SCT
18:16 -8.3 °C -9.3 °C 34361.1 hPa Calm     90 % 0 mm 70.0 W/m2 FEW
18:21 -8.3 °C -9.3 °C 34371.3 hPa Calm     90 % 0 mm 53.0 W/m2 FEW
18:26 -8.3 °C -9.3 °C 34371.3 hPa NW 12.9 km/h 12.9 km/h 90 % 0 mm 63.0 W/m2 SCT
18:31 -8.4 °C -9.3 °C 34361.1 hPa NNW 11.9 km/h 11.9 km/h 90 % 0 mm 72.0 W/m2 SCT
18:32 -8.4 °C -9.3 °C 34371.3 hPa North 11.9 km/h 11.9 km/h 90 % 0 mm 63.0 W/m2 FEW
18:37 -8.4 °C -9.3 °C 34371.3 hPa NNW 20.9 km/h 20.9 km/h 90 % 0 mm 49.0 W/m2 FEW
18:42 -8.6 °C -9.5 °C 34371.3 hPa NNW 11.9 km/h 11.9 km/h 90 % 0 mm 53.0 W/m2 SCT
18:47 -8.7 °C -9.6 °C 34371.3 hPa NNW 12.9 km/h 12.9 km/h 90 % 0 mm 69.0 W/m2 SCT
18:52 -8.7 °C -9.5 °C 34361.1 hPa NNW 11.9 km/h 11.9 km/h 91 % 0 mm 60.0 W/m2 FEW
18:57 -8.7 °C -9.6 °C 34361.1 hPa NNW 15 km/h 15 km/h 91 % 0 mm 30.0 W/m2 SCT
19:02 -8.8 °C -9.6 °C 34371.3 hPa NW 15 km/h 15 km/h 91 % 0 mm 21.0 W/m2 BKN
19:07 -8.8 °C -9.6 °C 34371.3 hPa NW 20.9 km/h 20.9 km/h 91 % 0 mm 25.0 W/m2 BKN
19:12 -8.8 °C -9.7 °C 34371.3 hPa NW 17.9 km/h 17.9 km/h 91 % 0 mm 26.0 W/m2 BKN
19:13 -8.8 °C -9.7 °C 34371.3 hPa NW 17.9 km/h 17.9 km/h 91 % 0 mm 26.0 W/m2 BKN
19:18 -8.9 °C -9.7 °C 34371.3 hPa NNW 11.9 km/h 11.9 km/h 91 % 0 mm 16.0 W/m2 BKN
19:23 -8.9 °C -9.7 °C 34371.3 hPa NW 17.9 km/h 17.9 km/h 91 % 0 mm 11.0 W/m2 BKN
19:28 -8.9 °C -9.8 °C 34371.3 hPa North 23.8 km/h 23.8 km/h 91 % 0 mm 7.0 W/m2 BKN
19:33 -9 °C -9.7 °C 34371.3 hPa NW 20.9 km/h 20.9 km/h 92 % 0 mm 9.0 W/m2 BKN
19:38 -9.1 °C -9.8 °C 34371.3 hPa NNW 26.9 km/h 26.9 km/h 92 % 0 mm 7.0 W/m2 BKN
19:44 -9.1 °C -9.8 °C 34371.3 hPa WNW 29.8 km/h 29.8 km/h 92 % 0 mm 0.0 W/m2 BKN
19:49 -9.1 °C -9.8 °C 34371.3 hPa WNW 29.8 km/h 29.8 km/h 92 % 0 mm 0.0 W/m2 OVC
19:54 -9.2 °C -9.9 °C 34384.8 hPa WSW 26.9 km/h 26.9 km/h 92 % 0 mm 0.0 W/m2 OVC
19:59 -9.3 °C -10 °C 34384.8 hPa SW 17.9 km/h 17.9 km/h 92 % 20.32 mm 0.0 W/m2 RA
20:04 -9.3 °C -10.1 °C 34384.8 hPa Calm   2.6 km/h 92 % 50.8 mm 0.0 W/m2 RA
20:09 -9.3 °C -10.1 °C 34384.8 hPa WSW 26.9 km/h 26.9 km/h 92 % 76.2 mm 0.0 W/m2 RA
20:14 -9.4 °C -10.1 °C 34371.3 hPa NW 25.9 km/h 25.9 km/h 92 % 83.82 mm 0.0 W/m2 RA
20:19 -9.5 °C -10.2 °C 34371.3 hPa WNW 47.6 km/h 47.6 km/h 92 % 109.22 mm 0.0 W/m2 RA
20:24 -9.6 °C -10.3 °C 34384.8 hPa NW 59.5 km/h 59.5 km/h 92 % 160.02 mm 0.0 W/m2 RA
20:29 -9.6 °C -10.3 °C 34384.8 hPa WNW 62.6 km/h 62.6 km/h 92 % 187.96 mm 0.0 W/m2 RA
20:34 -9.6 °C -10.2 °C 34384.8 hPa WNW 50.7 km/h 50.7 km/h 92 % 238.76 mm 0.0 W/m2 RA
20:39 -9.5 °C -10.2 °C 34395 hPa ENE 59.5 km/h 59.5 km/h 92 % 335.28 mm 0.0 W/m2 RA
20:44 -9.6 °C -10.2 °C 34395 hPa ENE 50.7 km/h 50.7 km/h 92 % 426.72 mm 0.0 W/m2 RA
20:49 -9.6 °C -10.3 °C 34405.1 hPa WNW 49.2 km/h 49.2 km/h 92 % 464.82 mm 0.0 W/m2 RA
20:54 -9.6 °C -10.3 °C 34405.1 hPa WNW 50.7 km/h 50.7 km/h 92 % 490.22 mm 0.0 W/m2 RA
20:59 -9.6 °C -10.2 °C 34405.1 hPa WNW 47.6 km/h 47.6 km/h 93 % 482.6 mm 0.0 W/m2 RA
21:04 -9.6 °C -10.3 °C 34418.7 hPa West 50.7 km/h 50.7 km/h 92 % 464.82 mm 0.0 W/m2 RA
21:09 -9.6 °C -10.3 °C 34418.7 hPa ENE 38.8 km/h 38.8 km/h 92 % 469.9 mm 0.0 W/m2 RA
21:14 -9.7 °C -10.4 °C 34418.7 hPa ENE 32.8 km/h 32.8 km/h 92 % 482.6 mm 0.0 W/m2 RA
21:19 -9.7 °C -10.4 °C 34418.7 hPa ENE 20.9 km/h 20.9 km/h 92 % 464.82 mm 0.0 W/m2 RA
21:24 -9.8 °C -10.4 °C 34428.8 hPa ENE 20.8 km/h 20.8 km/h 92 % 426.72 mm 0.0 W/m2 RA
21:29 -9.8 °C -10.5 °C 34428.8 hPa West 17.9 km/h 17.9 km/h 92 % 414.02 mm 0.0 W/m2 RA
21:34 -9.8 °C -10.6 °C 34418.7 hPa WSW 9 km/h 9 km/h 92 % 373.38 mm 0.0 W/m2 RA
21:39 -9.9 °C -10.6 °C 34428.8 hPa Calm     92 % 276.86 mm 0.0 W/m2 RA
21:40 -9.8 °C -10.6 °C 34428.8 hPa Calm     92 % 276.86 mm 0.0 W/m2 RA
21:45 -9.9 °C -10.6 °C 34418.7 hPa Calm     92 % 218.44 mm 0.0 W/m2 RA
21:50 -9.9 °C -10.6 °C 34418.7 hPa Calm     92 % 193.04 mm 0.0 W/m2 RA
21:55 -9.9 °C -10.5 °C 34418.7 hPa Calm     93 % 180.34 mm 0.0 W/m2 RA
22:00 -9.8 °C -10.4 °C 34418.7 hPa Calm     93 % 167.64 mm 0.0 W/m2 RA
22:05 -9.8 °C -10.4 °C 34418.7 hPa Calm     93 % 160.02 mm 0.0 W/m2 RA
22:10 -9.8 °C -10.4 °C 34418.7 hPa Calm     93 % 147.32 mm 0.0 W/m2 RA
22:15 -9.8 °C -10.4 °C 34418.7 hPa Calm     93 % 129.54 mm 0.0 W/m2 RA
22:20 -9.8 °C -10.4 °C 34418.7 hPa Calm     93 % 129.54 mm 0.0 W/m2 RA
22:25 -9.9 °C -10.5 °C 34418.7 hPa Calm     93 % 116.84 mm 0.0 W/m2 RA
22:30 -9.8 °C -10.4 °C 34418.7 hPa Calm     93 % 109.22 mm 0.0 W/m2 RA
22:35 -9.8 °C -10.4 °C 34418.7 hPa Calm     93 % 96.52 mm 0.0 W/m2 CLR
22:40 -9.9 °C -10.5 °C 34418.7 hPa Calm     93 % 83.82 mm 0.0 W/m2 CLR
22:45 -9.9 °C -10.5 °C 34418.7 hPa Calm     93 % 76.2 mm 0.0 W/m2 RA
22:50 -9.8 °C -10.4 °C 34418.7 hPa WNW 10.3 km/h 10.3 km/h 93 % 63.5 mm 0.0 W/m2 CLR
22:55 -9.7 °C -10.3 °C 34428.8 hPa WNW 15.6 km/h 15.6 km/h 93 % 58.42 mm 0.0 W/m2 CLR
23:00 -9.7 °C -10.3 °C 34428.8 hPa NW 26.9 km/h 26.9 km/h 93 % 38.1 mm 0.0 W/m2 CLR
23:05 -9.8 °C -10.4 °C 34428.8 hPa NW 29.8 km/h 29.8 km/h 93 % 38.1 mm 0.0 W/m2 CLR
23:10 -9.8 °C -10.4 °C 34428.8 hPa NW 29.8 km/h 29.8 km/h 93 % 25.4 mm 0.0 W/m2 CLR
23:15 -9.8 °C -10.4 °C 34428.8 hPa NW 29.8 km/h 29.8 km/h 93 % 20.32 mm 0.0 W/m2 CLR
23:20 -9.8 °C -10.4 °C 34428.8 hPa NW 9 km/h 9 km/h 93 % 12.7 mm 0.0 W/m2 CLR
23:25 -9.8 °C -10.4 °C 34428.8 hPa NW 44.7 km/h 44.7 km/h 93 % 12.7 mm 0.0 W/m2 CLR
23:30 -9.8 °C -10.4 °C 34428.8 hPa NW 23.8 km/h 23.8 km/h 93 % 7.62 mm 0.0 W/m2 CLR
23:35 -9.8 °C -10.4 °C 34428.8 hPa WNW 15.6 km/h 15.6 km/h 93 % 7.62 mm 0.0 W/m2 CLR
23:40 -9.8 °C -10.4 °C 34428.8 hPa WNW 15.6 km/h 15.6 km/h 93 % 7.62 mm 0.0 W/m2 CLR
23:45 -9.8 °C -10.4 °C 34428.8 hPa NW 9 km/h 9 km/h 93 % 0 mm 0.0 W/m2 CLR
23:50 -9.8 °C -10.4 °C 34428.8 hPa NW 28.5 km/h 28.5 km/h 93 % 0 mm 0.0 W/m2 CLR
23:55 -9.8 °C -10.4 °C 34428.8 hPa WNW 15.6 km/h 15.6 km/h 93 % 0 mm 0.0 W/m2 CLR
Lo Temps de Massalio
Compliments of Weather Underground - 1.25 mb